﻿測定場所 (Monitoring sites),日付 (Measurement date),時間 (Measurement time),線量率 最大値 (max) μGy/h,線量率 最小値 (min) μGy/h,線量率 平均値 (average) μGy/h,
江戸川 (Edogawa),2022-12-04,23:01～24:00,0.0437,0.0379,0.0406,
江戸川 (Edogawa),2022-12-04,22:01～23:00,0.0441,0.0374,0.0408,
江戸川 (Edogawa),2022-12-04,21:01～22:00,0.0458,0.0368,0.0410,
江戸川 (Edogawa),2022-12-04,20:01～21:00,0.0444,0.0387,0.0411,
江戸川 (Edogawa),2022-12-04,19:01～20:00,0.0447,0.0370,0.0409,
江戸川 (Edogawa),2022-12-04,18:01～19:00,0.0440,0.0371,0.0403,
江戸川 (Edogawa),2022-12-04,17:01～18:00,0.0442,0.0379,0.0408,
江戸川 (Edogawa),2022-12-04,16:01～17:00,0.0433,0.0369,0.0404,
江戸川 (Edogawa),2022-12-04,15:01～16:00,0.0430,0.0377,0.0404,
江戸川 (Edogawa),2022-12-04,14:01～15:00,0.0433,0.0368,0.0402,
江戸川 (Edogawa),2022-12-04,13:01～14:00,0.0438,0.0370,0.0404,
江戸川 (Edogawa),2022-12-04,12:01～13:00,0.0431,0.0371,0.0406,
江戸川 (Edogawa),2022-12-04,11:01～12:00,0.0449,0.0368,0.0409,
江戸川 (Edogawa),2022-12-04,10:01～11:00,0.0449,0.0377,0.0415,
江戸川 (Edogawa),2022-12-04,09:01～10:00,0.0443,0.0384,0.0414,
江戸川 (Edogawa),2022-12-04,08:01～09:00,0.0442,0.0386,0.0411,
江戸川 (Edogawa),2022-12-04,07:01～08:00,0.0439,0.0376,0.0411,
江戸川 (Edogawa),2022-12-04,06:01～07:00,0.0442,0.0384,0.0410,
江戸川 (Edogawa),2022-12-04,05:01～06:00,0.0431,0.0374,0.0406,
江戸川 (Edogawa),2022-12-04,04:01～05:00,0.0427,0.0366,0.0403,
江戸川 (Edogawa),2022-12-04,03:01～04:00,0.0429,0.0379,0.0402,
江戸川 (Edogawa),2022-12-04,02:01～03:00,0.0442,0.0368,0.0403,
江戸川 (Edogawa),2022-12-04,01:01～02:00,0.0439,0.0373,0.0401,
江戸川 (Edogawa),2022-12-04,00:01～01:00,0.0435,0.0367,0.0403,
江戸川 (Edogawa),2022-12-03,23:01～24:00,0.0443,0.0364,0.0402,
江戸川 (Edogawa),2022-12-03,22:01～23:00,0.0432,0.0370,0.0399,
江戸川 (Edogawa),2022-12-03,21:01～22:00,0.0427,0.0374,0.0401,
江戸川 (Edogawa),2022-12-03,20:01～21:00,0.0436,0.0363,0.0397,
江戸川 (Edogawa),2022-12-03,19:01～20:00,0.0432,0.0361,0.0396,
江戸川 (Edogawa),2022-12-03,18:01～19:00,0.0427,0.0367,0.0396,
江戸川 (Edogawa),2022-12-03,17:01～18:00,0.0438,0.0373,0.0400,
江戸川 (Edogawa),2022-12-03,16:01～17:00,0.0431,0.0368,0.0401,
江戸川 (Edogawa),2022-12-03,15:01～16:00,0.0430,0.0379,0.0406,
江戸川 (Edogawa),2022-12-03,14:01～15:00,0.0436,0.0368,0.0402,
江戸川 (Edogawa),2022-12-03,13:01～14:00,0.0432,0.0368,0.0398,
江戸川 (Edogawa),2022-12-03,12:01～13:00,0.0429,0.0370,0.0401,
江戸川 (Edogawa),2022-12-03,11:01～12:00,0.0430,0.0374,0.0400,
江戸川 (Edogawa),2022-12-03,10:01～11:00,0.0428,0.0363,0.0399,
江戸川 (Edogawa),2022-12-03,09:01～10:00,0.0427,0.0371,0.0400,
江戸川 (Edogawa),2022-12-03,08:01～09:00,0.0428,0.0368,0.0399,
江戸川 (Edogawa),2022-12-03,07:01～08:00,0.0426,0.0377,0.0402,
江戸川 (Edogawa),2022-12-03,06:01～07:00,0.0430,0.0379,0.0401,
江戸川 (Edogawa),2022-12-03,05:01～06:00,0.0418,0.0377,0.0398,
江戸川 (Edogawa),2022-12-03,04:01～05:00,0.0431,0.0371,0.0397,
江戸川 (Edogawa),2022-12-03,03:01～04:00,0.0415,0.0366,0.0394,
江戸川 (Edogawa),2022-12-03,02:01～03:00,0.0424,0.0371,0.0398,
江戸川 (Edogawa),2022-12-03,01:01～02:00,0.0426,0.0368,0.0391,
江戸川 (Edogawa),2022-12-03,00:01～01:00,0.0422,0.0366,0.0394,
江戸川 (Edogawa),2022-12-02,23:01～24:00,0.0422,0.0368,0.0396,
江戸川 (Edogawa),2022-12-02,22:01～23:00,0.0425,0.0367,0.0396,
江戸川 (Edogawa),2022-12-02,21:01～22:00,0.0426,0.0367,0.0394,
江戸川 (Edogawa),2022-12-02,20:01～21:00,0.0430,0.0369,0.0393,
江戸川 (Edogawa),2022-12-02,19:01～20:00,0.0430,0.0372,0.0395,
江戸川 (Edogawa),2022-12-02,18:01～19:00,0.0436,0.0370,0.0397,
江戸川 (Edogawa),2022-12-02,17:01～18:00,0.0431,0.0366,0.0397,
江戸川 (Edogawa),2022-12-02,16:01～17:00,0.0441,0.0368,0.0398,
江戸川 (Edogawa),2022-12-02,15:01～16:00,0.0432,0.0365,0.0398,
江戸川 (Edogawa),2022-12-02,14:01～15:00,0.0430,0.0371,0.0402,
江戸川 (Edogawa),2022-12-02,13:01～14:00,0.0433,0.0373,0.0407,
江戸川 (Edogawa),2022-12-02,12:01～13:00,0.0436,0.0378,0.0408,
江戸川 (Edogawa),2022-12-02,11:01～12:00,0.0439,0.0379,0.0403,
江戸川 (Edogawa),2022-12-02,10:01～11:00,0.0437,0.0371,0.0405,
江戸川 (Edogawa),2022-12-02,09:01～10:00,0.0421,0.0374,0.0401,
江戸川 (Edogawa),2022-12-02,08:01～09:00,0.0436,0.0380,0.0404,
江戸川 (Edogawa),2022-12-02,07:01～08:00,0.0433,0.0372,0.0404,
江戸川 (Edogawa),2022-12-02,06:01～07:00,0.0427,0.0365,0.0398,
江戸川 (Edogawa),2022-12-02,05:01～06:00,0.0430,0.0371,0.0401,
江戸川 (Edogawa),2022-12-02,04:01～05:00,0.0441,0.0379,0.0401,
江戸川 (Edogawa),2022-12-02,03:01～04:00,0.0440,0.0369,0.0401,
江戸川 (Edogawa),2022-12-02,02:01～03:00,0.0424,0.0366,0.0399,
江戸川 (Edogawa),2022-12-02,01:01～02:00,0.0442,0.0369,0.0403,
江戸川 (Edogawa),2022-12-02,00:01～01:00,0.0443,0.0374,0.0404,
江戸川 (Edogawa),2022-12-01,23:01～24:00,0.0428,0.0365,0.0402,
江戸川 (Edogawa),2022-12-01,22:01～23:00,0.0433,0.0376,0.0402,
江戸川 (Edogawa),2022-12-01,21:01～22:00,0.0432,0.0382,0.0404,
江戸川 (Edogawa),2022-12-01,20:01～21:00,0.0427,0.0372,0.0400,
江戸川 (Edogawa),2022-12-01,19:01～20:00,0.0440,0.0374,0.0402,
江戸川 (Edogawa),2022-12-01,18:01～19:00,0.0426,0.0372,0.0401,
江戸川 (Edogawa),2022-12-01,17:01～18:00,0.0437,0.0368,0.0400,
江戸川 (Edogawa),2022-12-01,16:01～17:00,0.0435,0.0367,0.0400,
江戸川 (Edogawa),2022-12-01,15:01～16:00,0.0439,0.0373,0.0401,
江戸川 (Edogawa),2022-12-01,14:01～15:00,0.0445,0.0381,0.0413,
江戸川 (Edogawa),2022-12-01,13:01～14:00,0.0453,0.0391,0.0415,
江戸川 (Edogawa),2022-12-01,12:01～13:00,0.0440,0.0384,0.0410,
江戸川 (Edogawa),2022-12-01,11:01～12:00,0.0444,0.0384,0.0414,
江戸川 (Edogawa),2022-12-01,10:01～11:00,0.0440,0.0383,0.0414,
江戸川 (Edogawa),2022-12-01,09:01～10:00,0.0459,0.0393,0.0421,
江戸川 (Edogawa),2022-12-01,08:01～09:00,0.0469,0.0397,0.0430,
江戸川 (Edogawa),2022-12-01,07:01～08:00,0.0493,0.0393,0.0441,
江戸川 (Edogawa),2022-12-01,06:01～07:00,0.0447,0.0382,0.0418,
江戸川 (Edogawa),2022-12-01,05:01～06:00,0.0442,0.0371,0.0410,
江戸川 (Edogawa),2022-12-01,04:01～05:00,0.0447,0.0370,0.0404,
江戸川 (Edogawa),2022-12-01,03:01～04:00,0.0442,0.0379,0.0405,
江戸川 (Edogawa),2022-12-01,02:01～03:00,0.0435,0.0372,0.0404,
江戸川 (Edogawa),2022-12-01,01:01～02:00,0.0434,0.0362,0.0399,
江戸川 (Edogawa),2022-12-01,00:01～01:00,0.0429,0.0365,0.0402,
江戸川 (Edogawa),2022-11-30,23:01～24:00,0.0430,0.0375,0.0402,
江戸川 (Edogawa),2022-11-30,22:01～23:00,0.0449,0.0366,0.0399,
江戸川 (Edogawa),2022-11-30,21:01～22:00,0.0439,0.0367,0.0405,
江戸川 (Edogawa),2022-11-30,20:01～21:00,0.0446,0.0383,0.0412,
江戸川 (Edogawa),2022-11-30,19:01～20:00,0.0450,0.0371,0.0408,
江戸川 (Edogawa),2022-11-30,18:01～19:00,0.0427,0.0370,0.0402,
江戸川 (Edogawa),2022-11-30,17:01～18:00,0.0420,0.0368,0.0398,
江戸川 (Edogawa),2022-11-30,16:01～17:00,0.0437,0.0370,0.0397,
江戸川 (Edogawa),2022-11-30,15:01～16:00,0.0426,0.0367,0.0398,
江戸川 (Edogawa),2022-11-30,14:01～15:00,0.0428,0.0370,0.0401,
江戸川 (Edogawa),2022-11-30,13:01～14:00,0.0431,0.0378,0.0404,
江戸川 (Edogawa),2022-11-30,12:01～13:00,0.0434,0.0380,0.0407,
江戸川 (Edogawa),2022-11-30,11:01～12:00,0.0426,0.0369,0.0400,
江戸川 (Edogawa),2022-11-30,10:01～11:00,0.0430,0.0369,0.0400,
江戸川 (Edogawa),2022-11-30,09:01～10:00,0.0427,0.0373,0.0399,
江戸川 (Edogawa),2022-11-30,08:01～09:00,0.0422,0.0367,0.0397,
江戸川 (Edogawa),2022-11-30,07:01～08:00,0.0442,0.0370,0.0400,
江戸川 (Edogawa),2022-11-30,06:01～07:00,0.0430,0.0370,0.0399,
江戸川 (Edogawa),2022-11-30,05:01～06:00,0.0434,0.0375,0.0404,
江戸川 (Edogawa),2022-11-30,04:01～05:00,0.0466,0.0389,0.0422,
江戸川 (Edogawa),2022-11-30,03:01～04:00,0.0552,0.0429,0.0484,
江戸川 (Edogawa),2022-11-30,02:01～03:00,0.0605,0.0518,0.0558,
江戸川 (Edogawa),2022-11-30,01:01～02:00,0.0599,0.0525,0.0561,
江戸川 (Edogawa),2022-11-30,00:01～01:00,0.0535,0.0413,0.0463,
江戸川 (Edogawa),2022-11-29,23:01～24:00,0.0452,0.0392,0.0423,
江戸川 (Edogawa),2022-11-29,22:01～23:00,0.0490,0.0428,0.0454,
江戸川 (Edogawa),2022-11-29,21:01～22:00,0.0472,0.0381,0.0431,
江戸川 (Edogawa),2022-11-29,20:01～21:00,0.0433,0.0372,0.0404,
江戸川 (Edogawa),2022-11-29,19:01～20:00,0.0477,0.0394,0.0429,
江戸川 (Edogawa),2022-11-29,18:01～19:00,0.0524,0.0426,0.0479,
江戸川 (Edogawa),2022-11-29,17:01～18:00,0.0514,0.0438,0.0477,
江戸川 (Edogawa),2022-11-29,16:01～17:00,0.0509,0.0389,0.0455,
江戸川 (Edogawa),2022-11-29,15:01～16:00,0.0446,0.0377,0.0403,
江戸川 (Edogawa),2022-11-29,14:01～15:00,0.0436,0.0372,0.0405,
江戸川 (Edogawa),2022-11-29,13:01～14:00,0.0436,0.0374,0.0404,
江戸川 (Edogawa),2022-11-29,12:01～13:00,0.0436,0.0384,0.0408,
江戸川 (Edogawa),2022-11-29,11:01～12:00,0.0432,0.0370,0.0404,
江戸川 (Edogawa),2022-11-29,10:01～11:00,0.0439,0.0375,0.0407,
江戸川 (Edogawa),2022-11-29,09:01～10:00,0.0449,0.0382,0.0419,
江戸川 (Edogawa),2022-11-29,08:01～09:00,0.0463,0.0371,0.0412,
江戸川 (Edogawa),2022-11-29,07:01～08:00,0.0444,0.0368,0.0412,
江戸川 (Edogawa),2022-11-29,06:01～07:00,0.0440,0.0373,0.0408,
江戸川 (Edogawa),2022-11-29,05:01～06:00,0.0439,0.0373,0.0408,
江戸川 (Edogawa),2022-11-29,04:01～05:00,0.0444,0.0381,0.0412,
江戸川 (Edogawa),2022-11-29,03:01～04:00,0.0438,0.0381,0.0408,
江戸川 (Edogawa),2022-11-29,02:01～03:00,0.0453,0.0378,0.0408,
江戸川 (Edogawa),2022-11-29,01:01～02:00,0.0432,0.0384,0.0407,
江戸川 (Edogawa),2022-11-29,00:01～01:00,0.0442,0.0382,0.0409,
江戸川 (Edogawa),2022-11-28,23:01～24:00,0.0433,0.0376,0.0408,
江戸川 (Edogawa),2022-11-28,22:01～23:00,0.0447,0.0382,0.0408,
江戸川 (Edogawa),2022-11-28,21:01～22:00,0.0437,0.0386,0.0409,
江戸川 (Edogawa),2022-11-28,20:01～21:00,0.0448,0.0384,0.0411,
江戸川 (Edogawa),2022-11-28,19:01～20:00,0.0437,0.0387,0.0413,
江戸川 (Edogawa),2022-11-28,18:01～19:00,0.0462,0.0377,0.0413,
江戸川 (Edogawa),2022-11-28,17:01～18:00,0.0437,0.0376,0.0410,
江戸川 (Edogawa),2022-11-28,16:01～17:00,0.0462,0.0371,0.0411,
江戸川 (Edogawa),2022-11-28,15:01～16:00,0.0446,0.0386,0.0413,
江戸川 (Edogawa),2022-11-28,14:01～15:00,0.0448,0.0386,0.0413,
江戸川 (Edogawa),2022-11-28,13:01～14:00,0.0442,0.0382,0.0412,
江戸川 (Edogawa),2022-11-28,12:01～13:00,0.0451,0.0387,0.0418,
江戸川 (Edogawa),2022-11-28,11:01～12:00,0.0435,0.0384,0.0413,
江戸川 (Edogawa),2022-11-28,10:01～11:00,0.0444,0.0377,0.0415,
江戸川 (Edogawa),2022-11-28,09:01～10:00,0.0451,0.0386,0.0412,
江戸川 (Edogawa),2022-11-28,08:01～09:00,0.0461,0.0381,0.0413,
江戸川 (Edogawa),2022-11-28,07:01～08:00,0.0441,0.0379,0.0409,
江戸川 (Edogawa),2022-11-28,06:01～07:00,0.0442,0.0387,0.0411,
江戸川 (Edogawa),2022-11-28,05:01～06:00,0.0452,0.0374,0.0407,
江戸川 (Edogawa),2022-11-28,04:01～05:00,0.0450,0.0377,0.0410,
江戸川 (Edogawa),2022-11-28,03:01～04:00,0.0440,0.0379,0.0412,
江戸川 (Edogawa),2022-11-28,02:01～03:00,0.0442,0.0382,0.0410,
江戸川 (Edogawa),2022-11-28,01:01～02:00,0.0443,0.0368,0.0407,
江戸川 (Edogawa),2022-11-28,00:01～01:00,0.0451,0.0383,0.0409,
